星链-30598 (STARLINK-30598 )

导读 | 星芒AI

STARLINK-30598 是 SpaceX 星链计划中的一颗低轨通信卫星,属于第 12 批星链卫星(v1.5 版本)。该卫星于 2023 年 9 月发射,运行在约 550 公里的高度,旨在为全球提供高速互联网服务。它采用先进的推进系统和激光通信技术,支持更高效的星间通信。作为星链星座的一部分,STARLINK-30598 有助于扩大覆盖范围,提升网络性能,并推动 SpaceX 在全球宽带市场的布局。

基本信息
目录编号:
58079
目录名称:
STARLINK-30598
国际标识:
2023-160E
轨道中心:
EARTH
卫星名称:
星链-30598
卫星全名:
星链-30598 (STARLINK-30598 )
卫星状态:
在轨 (已飞行794 天)
发射日期:
2023-10-18 UTC
国别 :
美国 (US)
星等 :
--
轨道信息
数据来源 国际轨道数据 AOE轨道数据
星历时间 2025-12-20T02:26:39+0800
14小时前
查看轨道信息
2025-12-15T15:00:00+0800
5天前
查看轨道信息
半长轴 6937.191km 6937.235km
偏心率 0.0001201 0.0000016
轨道倾角 43.002° 43.002°
近地点辐角 261.345° 182.472°
升交点赤经 154.703° 179.031°
平近点角 98.725° 53.944°
近地点 558.22km 559.088km
远地点 559.888km 559.112km
周期 95.837分钟 95.838分钟
每日圈数 15.025446 15.025302
详细信息
固有亮度:
5
最大亮度:
0.3
卫星平台:
Starlink v2.0 mini
覆盖范围:
全球
运营商:
太空探索技术公司
运营商所在国:
美国
制造商(研发单位):
太空探索技术公司
制造商所在国:
美国
使用方式:
暂无
卫星简介
星链(Starlink)计划是由太空探索技术公司(SpaceX)提出的一个巨型低轨卫星互联网星座项目,计划在2019年至2024年间在太空搭建由约1.2万颗卫星组成的“星链”网络,其中1584颗将部署在地球上空550千米处的近地轨道,并从2020年开始工作。该卫星仍在工作。
2D轨道图
3D轨道图
轨道高度分析图
轨道倾角分析图
轨道综合分析图
查看轨道综合分析图